View from above orbital plane
|
View from above satellite
|
Ground track
|
The orbit data is extracted from the following two-line orbital elements,
1 15595U 85021A 21018.68337660 -.00000063 00000-0 23731-4 0 9992
2 15595 108.0356 295.8135 0002724 272.1596 87.9233 14.38183855878663
Epoch (UTC): | 18 January 2021 16:24:03 |
Eccentricity: | 0.0002724 |
inclination: | 108.0356° |
perigee height: | 762 km |
apogee height: | 766 km |
right ascension of ascending node: | 295.8135° |
argument of perigee: | 272.1596° |
revolutions per day: | 14.38183855 |
mean anomaly at epoch: | 87.9233° |
orbit number at epoch: | 87866 |
The dashed part of the orbit path shows where the satellite is in the earth's shadow,
|
|